Flag for U.S.A. Weather past 2 weeks in Acworth, Georgia, U.S.A.

Now
64 °F

Clear.


Feels Like: 64 °F
Forecast: 59 / 74 °F
Wind: No wind

Location: Cobb County-McCollum Field Airport


UV Index: 7 (High)

Visibility: 10 mi


Pressure: 29.93 "Hg

Humidity: 64%

Dew point: 52 °F

Location of AcworthLocation

Historic Weather in Acworth

°F

Acworth temperature yesterday

Maximum temperature yesterday: 79 °F (at 4:47 PM)
Minimum temperature yesterday: 43 °F (at 6:47 AM)
Average temperature yesterday: 68 °F

Past Weeks' High & Low Weather Summary

 TemperatureHumidityPressure
High81 °F (Apr 12, 4:47 PM)100% (Apr 13, 12:53 PM)30.44 "Hg (Apr 13, 12:53 PM)
Low30 °F (Apr 16, 6:47 AM)23% (Apr 23, 4:50 PM)29.72 "Hg (Apr 15, 6:47 AM)
Average61 °F57%30.12 "Hg
* Reported Apr 10 6:47 AM — Apr 24 10:50 PM, Acworth, Weather by CustomWeather, © 2014

Note: Actual official high and low records may vary slightly from our data, if they occured in-between our weather recording intervals... More about our weather records

Advertising

Historic Weather Conditions — Data for Previous 24 hours

 ConditionsComfort  
Time TempWeatherWind HumidityBarometerVisibility
10:50 PM
Apr 24
64 °FClear.No wind64%29.93 "Hg10 mi
9:47 PM68 °FPassing clouds.5 mph49%29.93 "Hg10 mi
8:47 PM73 °FScattered clouds.6 mph38%29.91 "Hg10 mi
7:51 PM75 °FScattered clouds.7 mph39%29.91 "Hg10 mi
6:49 PM79 °FScattered clouds.8 mph34%29.92 "Hg10 mi
5:47 PM77 °FScattered clouds.9 mph36%29.94 "Hg10 mi
4:47 PM79 °FScattered clouds.10 mph37%29.95 "Hg10 mi
3:47 PM77 °FPassing clouds.8 mph34%29.97 "Hg10 mi
2:47 PM75 °FSunny.7 mph36%29.99 "Hg10 mi
1:47 PM73 °FSunny.5 mph36%30.01 "Hg10 mi
12:47 PM72 °FSunny.6 mph36%30.05 "Hg10 mi
11:47 AM68 °FSunny.6 mph38%30.08 "Hg10 mi
10:48 AM64 °FSunny.8 mph40%30.08 "Hg10 mi
9:47 AM61 °FSunny.12 mph39%30.06 "Hg10 mi
8:47 AM54 °FSunny.5 mph58%30.06 "Hg10 mi
7:47 AM46 °FClear.3 mph76%30.05 "Hg10 mi
6:47 AM43 °FClear.No wind81%30.03 "Hg10 mi
Weather by CustomWeather, © 2014

See weather overview